Wind_Speed
11 13 14 16 16 18 19 19 20 22 23 23 24 25 25 26 26 26 26 26 26 26 26 25 25 25 25 25 26 25 25 25 26 26 26 25 24 23 23 24 24 24 25 25
11 13 14 15 16 17 17 18 19 21 22 23 24 25 25 26 25 25 25 26 26 26 26 26 26 26 25 25 25 26 25 25 25 25 25 24 24 23 23 24 24 24 24 24
12 13 14 14 15 16 17 17 18 20 21 22 23 23 24 25 25 25 25 25 26 26 27 26 26 26 26 26 26 25 26 25 25 25 26 24 23 24 24 24 24 25 25 25
11 13 14 15 16 17 17 18 19 20 20 21 22 22 22 24 25 25 25 25 24 25 25 25 25 25 26 26 26 25 24 25 25 26 24 24 25 26 25 25 25 25 26 26
12 13 14 15 16 17 17 18 18 19 20 21 22 23 23 25 24 24 24 24 24 24 24 24 25 26 26 26 26 26 25 25 25 25 25 25 26 26 26 26 26 26 27 27
12 14 15 16 16 17 17 17 18 19 19 20 21 22 22 23 23 24 24 24 24 24 24 25 25 26 26 27 26 25 25 25 25 25 27 27 27 27 27 27 27 28 28 28
13 14 15 15 15 16 16 17 17 18 18 19 21 21 21 23 23 23 24 24 24 25 25 24 25 26 26 27 26 26 26 26 26 26 26 27 28 28 28 27 27 28 29 29
13 14 15 15 15 16 16 17 17 18 17 18 20 21 21 22 22 22 22 23 24 24 23 23 24 25 24 25 25 25 26 27 26 26 26 27 28 28 27 28 28 29 28 28
14 15 16 16 17 17 18 18 18 19 20 20 19 21 22 21 21 21 21 22 22 22 21 22 22 23 23 24 25 25 26 27 27 27 27 28 28 27 27 28 28 28 28 28
15 16 17 17 18 18 18 18 19 18 19 19 19 20 20 20 19 19 19 20 21 20 21 21 22 23 24 25 26 27 26 27 27 27 27 27 27 27 26 26 27 28 28 28
16 17 17 18 18 18 19 18 18 18 18 18 19 19 20 20 19 18 19 19 19 20 21 21 22 23 24 25 26 26 26 27 27 27 27 27 26 27 27 27 27 27 27 27
17 17 18 18 18 18 19 19 18 18 19 19 19 20 20 19 19 18 19 18 18 18 19 20 21 22 23 24 25 26 27 27 28 28 28 28 27 27 26 26 26 26 26 26
17 18 18 18 18 18 18 18 18 18 19 19 19 20 19 18 18 18 18 18 18 18 18 19 19 20 21 23 24 25 26 27 27 27 26 25 25 25 24 24 25 25 25 25
18 18 18 18 18 19 19 19 19 19 19 18 18 18 18 17 18 18 18 18 17 17 17 18 18 19 20 21 22 23 24 23 24 23 23 24 24 24 24 24 24 24 24 23
20 19 19 19 19 20 19 19 19 19 18 18 17 18 18 17 18 18 17 17 16 16 17 17 18 19 19 19 20 21 20 21 20 21 21 22 22 23 24 24 24 24 23 23
20 20 20 20 20 20 19 19 18 18 17 17 17 18 18 18 17 17 17 17 17 17 17 17 18 18 18 18 18 18 19 18 18 19 19 20 20 21 22 22 22 22 22 22
20 20 20 20 19 19 19 18 18 17 17 17 17 17 17 17 16 16 16 17 17 18 17 17 18 17 17 17 17 16 16 17 17 17 18 18 18 19 19 20 20 20 21 21
20 20 20 19 19 19 18 18 17 17 17 17 17 16 16 17 17 17 16 17 17 17 17 17 16 15 15 15 15 15 15 15 15 16 17 17 17 17 17 18 18 19 19 20
20 20 19 18 19 19 18 17 17 17 16 16 16 16 16 16 17 16 16 16 16 16 16 15 14 14 14 14 14 14 14 14 15 16 16 16 16 16 16 17 16 17 17 17
20 19 19 19 19 19 18 16 16 16 15 15 15 15 15 15 16 16 16 15 15 14 14 14 14 13 13 13 13 13 13 13 13 14 14 14 13 14 14 15 15 14 14 14
20 19 19 18 18 18 16 15 15 15 15 14 15 15 16 16 16 16 15 14 13 13 12 12 12 12 12 12 12 12 12 12 12 12 12 12 12 12 12 13 13 12 12 12
21 20 18 18 17 16 15 14 14 14 14 14 14 15 15 16 15 14 13 12 11 11 11 11 11 11 11 11 10 10 9 9 9 9 10 10 10 11 11 11 11 11 10 10
20 19 18 17 16 15 14 14 14 14 13 13 13 14 15 15 13 12 11 10 10 10 10 10 10 9 9 9 9 8 7 7 8 8 8 9 9 10 10 10 10 10 9 9
21 19 18 17 15 14 13 13 13 13 12 12 12 13 13 12 11 10 9 10 10 9 9 9 8 8 8 8 9 7 7 7 7 7 7 7 7 8 8 8 8 8 8 8
21 20 19 17 15 14 13 12 12 12 12 11 12 11 11 10 9 8 8 9 9 9 8 8 7 7 7 8 7 6 6 6 6 6 7 7 7 8 8 8 8 7 7 7
21 20 19 16 15 13 12 11 10 10 10 10 10 9 9 8 7 7 7 7 7 6 6 5 5 6 6 5 5 5 6 6 6 6 6 6 7 7 7 7 7 7 7 6
Wind_Direction
266 268 268 267 266 265 267 267 266 267 269 270 269 270 270 271 273 275 276 277 277 278 279 280 282 283 283 283 280 276 274 275 274 271 270 267 266 261 263 266 268 272 274 275
273 272 273 275 275 274 273 272 271 270 270 270 271 272 273 273 274 274 275 276 276 276 278 279 280 280 280 281 282 277 274 275 275 273 269 267 266 267 268 269 272 273 274 277
274 276 279 279 279 280 277 274 273 273 273 274 275 276 277 276 275 275 274 274 274 275 276 277 277 277 278 279 280 276 272 276 275 272 270 269 270 269 270 271 272 271 272 276
283 285 286 284 282 280 278 277 276 275 277 279 279 278 279 278 277 278 277 276 276 275 275 277 277 277 276 277 277 273 273 275 277 276 271 267 269 269 270 272 272 272 272 275
291 290 289 288 285 282 279 281 281 280 280 279 279 278 279 280 280 280 280 278 275 274 275 277 277 276 275 277 276 272 274 277 279 275 270 267 268 268 270 272 273 272 273 276
292 292 292 291 289 286 286 287 288 287 288 286 284 282 281 283 283 282 280 278 275 273 275 277 277 276 276 276 273 271 275 277 277 276 272 270 270 271 272 272 272 273 275 276
295 295 293 292 290 289 288 291 296 296 291 288 288 286 284 282 282 283 282 279 277 276 276 277 275 275 274 273 272 274 275 278 278 277 275 274 272 272 273 272 273 275 276 276
295 293 294 292 289 290 291 290 289 290 291 290 290 288 287 285 284 283 282 280 279 278 275 275 274 273 272 271 271 274 276 277 278 278 276 274 272 273 275 273 272 275 276 277
292 291 291 290 290 291 292 291 287 287 291 292 293 294 290 288 286 285 282 281 281 277 273 273 274 273 273 272 273 275 276 277 278 278 278 274 272 274 274 273 272 273 276 278
293 292 292 293 291 289 289 290 288 288 293 296 298 298 295 292 292 288 284 281 281 277 273 272 274 272 272 274 275 276 277 278 278 278 279 277 276 275 274 275 275 275 276 277
297 296 296 297 296 292 292 291 288 288 290 295 299 297 295 295 292 288 286 285 282 280 279 276 275 274 273 274 275 275 277 279 278 277 280 278 278 279 275 275 276 276 277 278
299 298 296 296 295 292 291 290 290 290 292 292 295 296 295 296 293 290 289 287 283 284 281 277 276 276 274 275 275 277 279 279 278 277 278 277 277 278 276 276 277 277 278 280
298 299 300 300 300 297 295 293 292 289 288 290 293 296 298 298 295 292 291 289 286 286 286 285 282 281 278 278 278 279 280 280 278 279 280 279 279 276 275 277 278 276 277 279
295 297 298 296 294 295 296 296 294 292 290 290 290 294 297 296 295 293 293 293 290 289 290 290 288 284 282 280 281 283 284 282 280 281 282 279 279 277 276 277 277 276 276 278
294 295 295 294 293 294 294 294 294 293 291 288 289 291 296 296 295 294 294 293 293 294 293 292 289 287 285 282 282 284 286 284 282 284 284 283 283 279 277 278 277 278 278 279
293 294 294 295 295 296 295 293 292 291 292 290 289 290 296 298 296 297 296 296 296 297 296 295 293 292 290 289 288 288 288 288 285 284 284 286 286 283 282 281 281 280 280 281
292 294 294 294 295 296 296 295 293 291 290 290 290 291 294 296 296 296 297 297 298 297 295 295 295 295 295 295 293 289 289 291 290 286 286 289 290 286 283 284 283 283 282 281
290 292 293 294 295 296 299 296 292 290 291 291 290 291 291 292 293 294 296 298 298 298 297 297 296 295 296 298 299 298 298 297 294 294 292 292 293 292 290 289 287 285 283 281
287 289 291 293 294 297 298 297 294 293 291 291 292 293 291 291 292 294 297 299 302 300 299 298 297 297 297 299 302 301 301 299 297 297 297 296 296 295 296 295 293 291 288 285
283 286 288 289 290 294 298 296 296 296 293 291 293 296 295 295 293 294 296 296 300 301 300 299 298 297 298 300 302 301 302 302 301 299 298 300 299 298 299 299 297 295 293 289
280 282 283 284 287 293 296 296 297 295 294 292 295 297 297 294 293 293 293 294 298 302 302 302 302 300 302 305 307 306 306 303 300 301 302 301 301 301 301 303 303 300 297 293
275 277 278 279 283 290 293 294 294 294 291 292 294 296 296 295 294 292 292 295 298 303 305 307 311 309 308 310 311 310 310 309 305 303 303 305 308 309 309 308 310 311 307 300
269 271 272 273 278 283 289 291 292 290 291 296 296 298 300 297 295 293 293 296 298 301 304 306 311 312 314 319 318 316 318 320 321 317 313 311 313 316 316 318 319 317 315 312
265 264 265 268 273 278 284 288 292 292 292 295 297 300 302 299 297 293 291 292 297 301 305 307 309 313 319 323 325 328 328 327 328 326 325 323 327 329 329 327 325 324 322 321
259 260 261 264 268 272 280 284 287 292 294 293 296 301 305 302 297 293 291 291 292 296 300 306 310 316 325 328 330 338 340 337 338 338 341 342 342 341 340 341 341 336 331 328
254 255 256 257 260 264 270 275 280 286 291 294 297 302 309 307 298 295 297 295 294 295 299 306 316 321 331 335 342 344 344 353 357 356 351 350 355 1 3 2 358 355 351 347
Height
5866 5867 5867 5867 5867 5867 5867 5867 5867 5866 5865 5865 5865 5864 5864 5863 5863 5862 5862 5862 5861 5860 5859 5858 5857 5855 5854 5852 5851 5849 5848 5847 5846 5845 5844 5843 5843 5842 5842 5841 5841 5841 5841 5840
5864 5864 5864 5863 5863 5863 5863 5863 5863 5862 5860 5860 5860 5859 5858 5857 5857 5857 5856 5855 5855 5854 5853 5852 5851 5849 5848 5846 5845 5843 5841 5841 5840 5839 5838 5838 5837 5837 5837 5836 5835 5835 5835 5834
5861 5861 5860 5860 5859 5859 5859 5858 5858 5857 5856 5855 5855 5854 5853 5852 5851 5851 5850 5849 5849 5847 5846 5845 5844 5843 5842 5840 5839 5837 5835 5835 5834 5833 5833 5833 5832 5832 5831 5830 5830 5829 5828 5828
5858 5857 5856 5856 5855 5855 5855 5853 5853 5852 5852 5851 5851 5850 5849 5846 5845 5845 5844 5843 5842 5841 5840 5839 5838 5837 5836 5835 5833 5831 5829 5829 5828 5827 5827 5827 5826 5825 5825 5824 5823 5823 5822 5821
5854 5853 5853 5852 5851 5850 5850 5849 5848 5847 5846 5846 5845 5845 5845 5841 5840 5839 5838 5837 5836 5835 5834 5833 5832 5831 5829 5828 5827 5826 5824 5823 5822 5821 5820 5820 5820 5819 5818 5817 5817 5816 5816 5815
5851 5850 5849 5848 5847 5846 5845 5844 5843 5842 5842 5841 5840 5839 5838 5836 5834 5833 5832 5831 5829 5829 5828 5827 5826 5824 5823 5821 5820 5819 5818 5817 5816 5815 5814 5813 5813 5812 5811 5811 5810 5809 5809 5808
5848 5847 5845 5844 5843 5842 5841 5841 5840 5839 5838 5838 5835 5833 5833 5829 5828 5827 5825 5824 5823 5822 5821 5820 5819 5817 5816 5815 5814 5813 5812 5811 5810 5809 5807 5807 5806 5805 5804 5803 5803 5802 5801 5800
5846 5845 5843 5841 5840 5839 5837 5837 5837 5836 5835 5833 5829 5827 5826 5823 5822 5820 5819 5817 5816 5815 5814 5813 5812 5811 5810 5809 5808 5807 5806 5805 5804 5802 5801 5800 5799 5798 5797 5796 5795 5795 5794 5793
5842 5841 5839 5837 5835 5834 5833 5832 5831 5829 5827 5826 5824 5822 5819 5817 5816 5814 5813 5811 5810 5809 5808 5807 5806 5805 5804 5803 5802 5801 5800 5798 5797 5796 5795 5793 5792 5790 5789 5789 5788 5787 5786 5785
5837 5836 5835 5833 5831 5830 5829 5827 5825 5824 5822 5821 5820 5817 5815 5811 5810 5809 5807 5805 5804 5803 5802 5801 5799 5798 5797 5797 5796 5795 5793 5792 5791 5789 5788 5786 5785 5783 5782 5781 5780 5780 5779 5778
5833 5832 5831 5829 5827 5825 5824 5822 5820 5819 5817 5816 5815 5815 5809 5807 5805 5803 5801 5800 5798 5797 5796 5795 5793 5792 5791 5790 5789 5788 5787 5785 5784 5782 5780 5779 5778 5776 5775 5774 5773 5772 5771 5770
5829 5828 5826 5825 5822 5820 5818 5817 5815 5814 5813 5811 5809 5810 5804 5802 5800 5798 5796 5795 5793 5792 5790 5788 5787 5786 5785 5784 5783 5781 5780 5778 5776 5775 5773 5772 5771 5769 5768 5767 5766 5765 5764 5763
5825 5823 5822 5820 5819 5816 5814 5812 5810 5809 5808 5806 5805 5806 5799 5797 5795 5793 5792 5790 5789 5787 5785 5783 5781 5780 5779 5778 5776 5775 5773 5771 5768 5767 5765 5764 5764 5763 5761 5760 5759 5758 5757 5756
5820 5819 5818 5817 5814 5811 5809 5807 5805 5804 5803 5801 5800 5798 5796 5793 5791 5789 5787 5786 5784 5782 5780 5778 5776 5775 5773 5772 5770 5768 5766 5764 5762 5760 5759 5758 5757 5756 5755 5753 5752 5751 5750 5749
5815 5814 5812 5810 5808 5806 5804 5803 5801 5799 5797 5796 5795 5793 5791 5789 5786 5784 5783 5781 5779 5778 5776 5774 5771 5770 5768 5766 5765 5763 5761 5758 5756 5755 5753 5752 5751 5749 5748 5747 5745 5744 5744 5742
5810 5809 5807 5805 5803 5801 5799 5797 5796 5794 5792 5791 5790 5788 5786 5784 5782 5780 5778 5777 5775 5773 5771 5769 5767 5765 5762 5761 5759 5757 5755 5753 5751 5749 5748 5747 5745 5743 5742 5741 5739 5738 5737 5736
5805 5804 5802 5800 5798 5796 5795 5793 5791 5789 5788 5786 5785 5784 5781 5780 5778 5776 5774 5772 5770 5768 5766 5764 5762 5760 5758 5756 5754 5752 5750 5748 5746 5744 5743 5742 5740 5738 5736 5735 5733 5732 5731 5730
5800 5798 5796 5795 5794 5791 5793 5788 5786 5784 5783 5781 5780 5778 5777 5775 5773 5772 5770 5768 5765 5763 5761 5759 5757 5755 5753 5751 5750 5748 5746 5744 5742 5740 5738 5737 5735 5733 5731 5729 5728 5726 5725 5723
5795 5793 5791 5790 5788 5786 5786 5784 5781 5779 5778 5777 5775 5773 5772 5770 5769 5767 5765 5763 5761 5759 5757 5755 5753 5751 5749 5747 5746 5744 5742 5740 5738 5736 5734 5732 5731 5729 5727 5725 5723 5721 5719 5718
5790 5788 5787 5785 5783 5782 5782 5779 5776 5775 5773 5772 5770 5768 5767 5766 5764 5763 5761 5759 5757 5755 5753 5751 5749 5748 5746 5744 5742 5740 5738 5736 5734 5732 5730 5729 5727 5725 5723 5721 5719 5717 5715 5714
5784 5783 5782 5780 5778 5777 5777 5774 5772 5772 5770 5767 5765 5764 5762 5761 5760 5758 5756 5755 5753 5751 5749 5747 5746 5744 5742 5740 5738 5736 5734 5732 5731 5729 5727 5725 5724 5722 5720 5718 5715 5713 5712 5710
5778 5777 5777 5775 5774 5775 5772 5769 5768 5767 5764 5762 5761 5759 5758 5756 5754 5753 5751 5750 5749 5748 5746 5744 5743 5741 5739 5737 5735 5733 5731 5729 5727 5726 5724 5723 5721 5719 5717 5715 5713 5711 5709 5708
5772 5772 5771 5771 5771 5769 5767 5766 5764 5762 5760 5758 5757 5755 5753 5751 5750 5748 5747 5747 5746 5745 5743 5742 5740 5738 5737 5734 5732 5730 5729 5727 5725 5724 5722 5721 5719 5717 5715 5713 5711 5709 5707 5706
5766 5766 5765 5765 5765 5764 5763 5762 5760 5759 5757 5755 5753 5751 5749 5748 5746 5745 5744 5743 5742 5741 5740 5739 5737 5736 5735 5733 5731 5728 5727 5725 5724 5722 5721 5719 5717 5716 5714 5712 5710 5708 5706 5704
5759 5759 5760 5760 5761 5760 5759 5758 5757 5755 5753 5752 5750 5748 5746 5744 5743 5742 5741 5740 5739 5738 5737 5736 5735 5734 5733 5731 5729 5728 5726 5724 5723 5721 5720 5718 5716 5714 5713 5711 5709 5707 5705 5703
5752 5753 5755 5756 5756 5755 5755 5754 5753 5752 5750 5749 5747 5745 5744 5742 5740 5739 5738 5737 5737 5736 5735 5734 5734 5733 5731 5730 5728 5727 5725 5724 5722 5721 5719 5718 5716 5714 5712 5711 5709 5707 5705 5703